EST,Max TemperatureF,Mean TemperatureF,Min TemperatureF,Max Dew PointF,MeanDew PointF,Min DewpointF,Max Humidity, Mean Humidity, Min Humidity, Max Sea Level PressureIn, Mean Sea Level PressureIn, Min Sea Level PressureIn, Max VisibilityMiles, Mean VisibilityMiles, Min VisibilityMiles, Max Wind SpeedMPH, Mean Wind SpeedMPH, Max Gust SpeedMPH,PrecipitationIn, CloudCover, Events, WindDirDegrees
2014-1-1,8,-3,-14,-2,-12,-18,92,78,48,30.45,30.37,30.21,10,9,1,15,7,20,0.00,2,,61
2014-1-2,8,-3,-14,-6,-14,-18,92,78,48,30.38,30.32,30.28,10,10,3,8,4,,0.00,4,,54
2014-1-3,15,-2,-18,10,-3,-22,92,86,76,30.31,30.11,29.72,10,8,2,25,7,34,0.00,7,,131
2014-1-4,28,22,15,27,19,9,100,89,73,29.97,29.71,29.56,10,8,2,22,13,29,0.00,8,,224
2014-1-5,19,14,8,16,11,5,100,86,68,30.09,30.00,29.80,10,10,3,17,8,24,0.00,6,,291
2014-1-6,8,0,-7,3,-2,-13,92,86,72,29.78,29.70,29.66,10,4,0,18,12,26,0.00,7,,322
2014-1-7,6,-2,-11,0,-9,-17,85,77,66,30.04,29.82,29.70,10,8,2,20,12,30,0.00,5,,243
2014-1-8,15,6,-2,7,3,-8,100,85,68,30.35,30.20,30.04,10,10,10,14,9,20,0.00,6,,235
2014-1-9,19,10,1,14,8,0,100,86,68,30.44,30.34,30.16,10,10,7,13,7,20,0.00,7,,183
2014-1-10,33,24,17,32,23,14,100,97,86,30.15,29.94,29.55,10,6,1,15,9,16,0.03,8,,139
2014-1-11,35,32,30,36,32,28,100,96,93,29.54,29.31,29.19,10,5,0,23,11,29,0.15,8,,250
2014-1-12,35,32,30,30,28,27,100,87,75,29.68,29.57,29.45,10,10,7,16,10,21,0.00,6,,203
2014-1-13,37,32,26,37,32,21,100,93,74,29.57,29.46,29.38,10,9,2,18,7,24,0.01,8,,217
2014-1-14,33,26,21,25,22,19,100,86,69,29.72,29.67,29.56,10,7,0,13,8,21,0.03,8,,304
2014-1-15,21,14,8,21,11,7,100,89,79,29.84,29.76,29.65,10,7,1,18,13,26,0.01,8,,313
2014-1-16,24,20,17,25,19,16,100,94,86,29.68,29.56,29.50,10,6,0,23,15,30,0.00,8,,144
2014-1-17,30,22,15,27,22,16,100,95,80,29.77,29.67,29.58,10,7,2,16,7,22,0.00,8,,331
2014-1-18,24,14,3,18,12,1,100,90,69,29.83,29.77,29.60,10,8,2,7,4,,0.00,5,,243
2014-1-19,24,16,8,23,16,1,100,91,73,29.59,29.40,29.26,10,6,0,18,10,26,0.00,8,,279
2014-1-20,6,0,-11,1,-7,-17,92,78,47,30.13,29.88,29.57,10,9,2,16,8,18,0.00,5,,349
2014-1-21,6,-5,-16,-6,-13,-18,92,76,52,30.24,30.18,30.10,10,10,9,7,2,,0.00,6,,78
2014-1-22,3,0,-2,1,-1,-6,92,89,78,30.10,29.96,29.85,10,5,1,20,11,26,0.00,8,,98
2014-1-23,3,-3,-9,1,-8,-13,100,79,56,30.38,30.28,30.05,10,9,3,15,8,20,0.00,2,,338
2014-1-24,17,5,-7,18,9,-11,100,93,79,30.23,29.62,29.15,10,4,0,20,9,31,0.00,7,,216
2014-1-25,17,8,0,18,3,-6,100,88,73,29.56,29.35,29.10,10,2,0,26,12,38,0.01,7,,304
2014-1-26,3,-4,-11,1,-5,-15,100,89,78,29.57,29.42,29.28,10,4,1,12,6,,0.00,7,,78
2014-1-27,3,-4,-11,1,-8,-17,100,81,55,29.98,29.79,29.36,10,5,1,24,12,32,0.00,7,,281
2014-1-28,5,-3,-11,1,-8,-15,92,80,56,30.03,29.94,29.78,10,9,2,17,11,24,0.00,2,,239
2014-1-29,15,8,1,12,4,-2,100,83,58,29.88,29.81,29.72,10,8,2,17,12,24,0.00,6,,224
2014-1-30,28,22,15,25,19,12,100,87,74,29.81,29.62,29.47,10,8,0,22,11,29,0.04,6,,192
2014-1-31,15,12,10,12,9,7,93,85,73,30.04,29.94,29.66,10,10,7,15,10,23,0.02,7,,249